GSAT-N2 (GSAT-20)

Last updated on Mon Oct 20 2025 00:02:51 GMT+0000 (Coordinated Universal Time)

1 62028U 24214A 25292.19975194 -.00000022 00000+0 00000+0 0 9999 2 62028 0.0714 86.5917 0002416 246.1059 195.1406 1.00271490 3483
UTC large
Height (km)
Speed (km/s)
/
Latitude / Longitude
Inclination (degrees)
Orbital Period (minutes)
Azimuth
Elevation
Range (km)
Doppler Factor

Next 0 passes for location: London (51.5072 / 0.1276)

Sorry there are no passes over London.